Location: White Mills Observatory
(37.5374°N, 86.0303°W)
Time: 10:01:38
(UTC-05:00)

Amateur Radio Satellites - All Passes

Search period start: 03 March 2015 09:31
Search period end: 04 March 2015 09:31
Location: White Mills Observatory, 37.5374°N, 86.0303°W

Satellite Date Start Highest point End Downlink Frequencies (MHz)
Time Altitude Azimuth
DOVE 4 03 Mar 09:39:04 09:43:16 61° 100° (E) 09:47:23 437.250
CINEMA 3 03 Mar 09:43:03 09:46:50 33° 97° (E) 09:50:36 145.822/145.860
NANOSAT C BR1 03 Mar 09:46:04 09:47:33 12° 66° (ENE) 09:49:16 145.865
Oscar 11 03 Mar 09:49:28 09:53:17 31° 96° (E) 09:57:09 145.826/435.025
AAUSAT CUBESAT 2 03 Mar 09:52:33 09:56:45 76° 101° (E) 10:00:57 437.432
HO-68 03 Mar 09:52:53 10:00:07 85° 286° (WNW) 10:07:19 435.675
COMPASS 1 03 Mar 09:55:36 09:59:49 85° 280° (W) 10:04:02 437.405
CUBEBUG 2 03 Mar 09:59:56 10:03:31 28° 96° (E) 10:07:08 437.445
UNISAT 6 03 Mar 10:04:04 10:08:04 35° 73° (ENE) 10:12:03 437.425
DX 1 03 Mar 10:14:55 10:18:35 26° 96° (E) 10:22:17 434.975-435.025
QB50P1 03 Mar 10:16:48 10:20:21 27° 71° (ENE) 10:23:59 145.935-145.965
QB50P2 03 Mar 10:20:41 10:24:24 30° 71° (ENE) 10:28:10 145.880/145.840
AISAT 03 Mar 10:22:26 10:24:17 13° 90° (E) 10:26:22 437.250
BUGSAT 1 03 Mar 10:24:08 10:27:32 24° 70° (ENE) 10:31:00 437.445
SEEDS 03 Mar 10:24:15 10:28:02 32° 288° (WNW) 10:31:47 437.485
50 SAT 03 Mar 10:27:33 10:29:13 13° 91° (E) 10:31:05 437.505
TIGRISAT 03 Mar 10:28:26 10:32:49 67° 76° (ENE) 10:37:07 435.000
CANX-2 03 Mar 10:28:51 10:32:13 22° 290° (WNW) 10:35:29 2200.000
VELOX 1 03 Mar 10:31:01 10:33:37 16° 91° (E) 10:36:24 145.980
DUCHIFAT 1 03 Mar 10:34:53 10:38:54 42° 73° (ENE) 10:42:57 145.980
FUNcube-1 03 Mar 10:35:11 10:39:12 48° 99° (E) 10:43:16 145.935
HUMSAT D 03 Mar 10:35:34 10:38:55 24° 95° (E) 10:42:21 437.325/437.525
ZACube-1 03 Mar 10:36:38 10:40:42 52° 99° (E) 10:44:47 437.345
ANTELSAT 03 Mar 10:42:21 10:46:46 82° 258° (WSW) 10:51:07 437.575/2403.000
UKube-1 03 Mar 10:43:15 10:47:31 54° 100° (E) 10:51:46 .
ISS 03 Mar 10:45:25 10:47:25 15° 337° (NNW) 10:49:24 145.825
BRITE-PL 03 Mar 10:45:43 10:47:22 12° 296° (WNW) 10:48:44 437.365/2234.400
GOMX 1 03 Mar 10:46:16 10:48:59 16° 293° (WNW) 10:51:28 467.674
CUTE 1.7 + AOD 2 03 Mar 10:48:00 10:50:38 16° 292° (WNW) 10:53:07 437.475
ESTCUBE 1 03 Mar 10:49:42 10:51:21 12° 89° (E) 10:53:17 437.505/2401.250
O/OREOS (USA 219) 03 Mar 10:52:20 10:55:50 21° 302° (WNW) 10:59:14 437.305
POLYITAN 1 03 Mar 10:55:34 10:59:52 77° 75° (ENE) 11:04:09 437.675
POPSAT HIP 1 03 Mar 10:55:45 11:00:02 76° 76° (ENE) 11:04:20 437.405
DELFI C3 03 Mar 10:56:49 11:00:48 50° 285° (WNW) 11:04:45 145.870
UWE-3 03 Mar 10:57:12 11:01:20 70° 284° (WNW) 11:05:29 435.000/436.395/437.385
SO-50 03 Mar 11:08:06 11:13:05 82° 59° (ENE) 11:18:00 436.795
RS-15 03 Mar 11:08:30 11:17:48 27° 255° (WSW) 11:26:49 29.354- 29.394
CUSAT 1 03 Mar 11:12:46 11:15:02 26° 77° (ENE) 11:17:24 437.405
GONETS M04 03 Mar 11:18:47 11:25:47 26° 276° (W) 11:32:29
NANOSAT C BR1 03 Mar 11:18:47 11:23:00 57° 260° (W) 11:27:14 145.865
DOVE 4 03 Mar 11:20:10 11:20:34 10° 295° (WNW) 11:20:43 437.250
CINEMA 3 03 Mar 11:21:03 11:23:51 17° 291° (WNW) 11:26:30 145.822/145.860
Oscar 11 03 Mar 11:26:02 11:29:19 21° 291° (WNW) 11:32:30 145.826/435.025
CUBEBUG 2 03 Mar 11:36:58 11:40:06 20° 290° (WNW) 11:43:07 437.445
UNISAT 6 03 Mar 11:41:55 11:45:00 18° 267° (W) 11:47:55 437.425
HO-68 03 Mar 11:42:52 11:46:57 16° 303° (WNW) 11:50:40 435.675
DX 1 03 Mar 11:51:11 11:54:46 24° 291° (WNW) 11:58:14 434.975-435.025
QB50P1 03 Mar 11:52:44 11:56:13 23° 265° (W) 11:59:37 145.935-145.965
AISAT 03 Mar 11:56:57 12:01:17 51° 286° (WNW) 12:05:33 437.250
QB50P2 03 Mar 11:57:04 12:00:22 21° 266° (W) 12:03:33 145.880/145.840
CUBEBUG 1 03 Mar 11:58:01 12:02:25 67° 101° (E) 12:06:46 437.445
BUGSAT 1 03 Mar 11:59:18 12:02:56 26° 265° (W) 12:06:32 437.445
50 SAT 03 Mar 12:00:45 12:04:28 40° 287° (WNW) 12:08:11 437.505
VELOX 1 03 Mar 12:06:15 12:10:27 41° 287° (WNW) 12:14:36 145.980
HUMSAT D 03 Mar 12:11:20 12:14:38 23° 290° (WNW) 12:17:51 437.325/437.525
DUCHIFAT 1 03 Mar 12:12:29 12:15:00 15° 269° (W) 12:17:19 145.980
FUNcube-1 03 Mar 12:13:19 12:15:13 13° 293° (WNW) 12:16:54 145.935
ZACube-1 03 Mar 12:15:03 12:16:42 12° 293° (WNW) 12:18:09 437.345
UKube-1 03 Mar 12:21:13 12:23:16 13° 294° (WNW) 12:25:05 .
ESTCUBE 1 03 Mar 12:24:11 12:28:41 57° 285° (WNW) 12:33:07 437.505/2401.250
SPROUT 03 Mar 12:27:46 12:31:39 33° 97° (E) 12:35:32 437.525
TISAT 1 03 Mar 12:29:18 12:33:01 30° 96° (E) 12:36:46 437.305
DANDE 03 Mar 12:30:25 12:32:14 17° 266° (W) 12:34:00 436.750
SO-50 03 Mar 12:51:58 12:53:05 10° 252° (WSW) 12:53:51 436.795
Oscar 19 03 Mar 13:04:46 13:09:44 51° 73° (ENE) 13:14:44 437.125/150
ITUPSAT 1 03 Mar 13:04:47 13:05:48 11° 88° (E) 13:07:09 437.325
ITAMSAT 1 03 Mar 13:06:31 13:09:55 18° 65° (ENE) 13:13:29 435.822/435.867
CUBEBUG 1 03 Mar 13:37:06 13:38:17 11° 295° (WNW) 13:39:13 437.445
ISS 03 Mar 14:02:08 14:02:43 10° 17° (NNE) 14:03:22 145.825
SWISSCUBE 03 Mar 14:03:09 14:07:52 54° 100° (E) 14:12:34 437.505
SPROUT 03 Mar 14:04:27 14:07:33 19° 291° (WNW) 14:10:30 437.525
TISAT 1 03 Mar 14:05:32 14:08:41 20° 291° (WNW) 14:11:42 437.305
BEESAT 03 Mar 14:11:36 14:16:21 61° 100° (E) 14:21:06 436.000
Gurwin Techsat 1B 03 Mar 14:20:40 14:25:55 68° 75° (ENE) 14:31:14 435.225
AO-7 03 Mar 14:27:24 14:33:36 25° 58° (ENE) 14:40:04 29.400- 29.500
ITUPSAT 1 03 Mar 14:39:28 14:44:17 70° 285° (WNW) 14:49:04 437.325
ITAMSAT 1 03 Mar 14:43:57 14:49:03 53° 260° (W) 14:54:10 435.822/435.867
Oscar 19 03 Mar 14:46:06 14:49:28 17° 269° (W) 14:52:35 437.125/150
HORYU 2 03 Mar 15:10:01 15:14:19 53° 74° (ENE) 15:18:40 437.375
JAS-2 03 Mar 15:16:16 15:20:13 21° 63° (ENE) 15:24:40 435.910
ISS 03 Mar 15:36:45 15:39:51 42° 35° (NE) 15:42:57 145.825
SWISSCUBE 03 Mar 15:42:27 15:45:20 15° 294° (WNW) 15:48:00 437.505
KKS-1 03 Mar 15:46:44 15:51:08 65° 285° (WNW) 15:55:30 437.445
STARS 03 Mar 15:51:05 15:55:29 89° 102° (ESE) 15:59:51 437.465
BEESAT 03 Mar 15:51:15 15:53:45 14° 295° (WNW) 15:56:01 436.000
Gurwin Techsat 1B 03 Mar 16:03:53 16:06:30 13° 271° (W) 16:08:46 435.225
YUBILEINY 03 Mar 16:10:24 16:18:40 51° 90° (E) 16:27:06 435.215
M-CUBED/EXP-1 PRIME 03 Mar 16:16:56 16:19:17 15° 97° (E) 16:21:55 437.505
AO-7 03 Mar 16:17:24 16:25:45 73° 255° (WSW) 16:34:06 29.400- 29.500
AUBIESAT-1 03 Mar 16:18:26 16:20:28 13° 96° (E) 16:22:48 437.475
BEESAT 2 03 Mar 16:26:20 16:28:00 13° 110° (ESE) 16:29:53 435.950
Cubesat XI-IV 03 Mar 16:42:15 16:43:40 11° 62° (ENE) 16:45:25 437.490
VERMONT LUNAR 03 Mar 16:48:57 16:51:51 25° 149° (SSE) 16:54:47 437.305
HORYU 2 03 Mar 16:49:29 16:51:23 12° 270° (W) 16:53:03 437.375
CUTE-I 03 Mar 16:49:54 16:52:17 13° 63° (ENE) 16:54:58 437.470
JAS-2 03 Mar 16:59:36 17:04:53 51° 262° (W) 17:10:44 435.910
PHONESAT 2.4 03 Mar 17:00:06 17:02:17 15° 145° (SE) 17:04:32 2401.200-2431.200
MOZHAYETS 4 03 Mar 17:04:28 17:08:49 39° 98° (E) 17:13:11
ISS 03 Mar 17:13:53 17:16:03 16° 230° (SW) 17:18:08 145.825
BEESAT 3 03 Mar 17:35:01 17:39:06 87° 296° (WNW) 17:43:16 437.485
AIST 1 03 Mar 17:43:14 17:45:20 14° 70° (ENE) 17:47:40
M-CUBED/EXP-1 PRIME 03 Mar 17:50:13 17:54:24 50° 290° (WNW) 17:58:52 437.505
AUBIESAT-1 03 Mar 17:51:20 17:55:34 55° 290° (WNW) 18:00:05 437.475
BEESAT 2 03 Mar 18:01:46 18:05:47 51° 304° (WNW) 18:09:51 435.950
AIST 2 03 Mar 18:04:22 18:08:32 59° 117° (ESE) 18:12:46 435.215
YUBILEINY 03 Mar 18:08:10 18:15:53 32° 290° (WNW) 18:23:27 435.215
AO-7 03 Mar 18:17:24 18:20:08 11° 274° (W) 18:22:02 29.400- 29.500
Cubesat XI-IV 03 Mar 18:17:43 18:23:05 90° 209° (SSW) 18:28:31 437.490
VERMONT LUNAR 03 Mar 18:26:03 18:29:33 81° 344° (NNW) 18:33:03 437.305
CUTE-I 03 Mar 18:26:25 18:31:47 76° 257° (WSW) 18:37:12 437.470
PHONESAT 2.4 03 Mar 18:36:45 18:40:22 69° 159° (SSE) 18:44:00 2401.200-2431.200
HO-68 03 Mar 18:39:20 18:39:23 10° 53° (NE) 18:39:58 435.675
MOZHAYETS 4 03 Mar 18:42:29 18:45:48 19° 292° (WNW) 18:48:58
CUBESAT XI-V 03 Mar 19:06:03 19:10:43 59° 100° (E) 19:15:20 437.345
AIST 1 03 Mar 19:19:08 19:23:22 46° 267° (W) 19:27:32
O/OREOS (USA 219) 03 Mar 19:23:42 19:28:12 50° 66° (ENE) 19:32:38 437.305
PRISM 03 Mar 19:24:45 19:29:00 81° 284° (WNW) 19:33:13 437.425
STRAND 1 03 Mar 19:36:11 19:41:20 69° 101° (ESE) 19:46:27 437.568
SEEDS 03 Mar 19:41:47 19:42:47 11° 66° (ENE) 19:44:01 437.485
AIST 2 03 Mar 19:45:01 19:47:35 15° 315° (NW) 19:50:02 435.215
CANX-2 03 Mar 19:45:03 19:47:37 16° 68° (ENE) 19:50:19 2200.000
CUTE 1.7 + AOD 2 03 Mar 20:02:40 20:05:58 23° 70° (ENE) 20:09:21 437.475
VERMONT LUNAR 03 Mar 20:04:15 20:07:39 49° 0° (N) 20:11:03 437.305
GOMX 1 03 Mar 20:12:18 20:17:16 40° 73° (ENE) 20:22:05 467.674
BRITE-PL 03 Mar 20:12:19 20:17:52 60° 75° (ENE) 20:23:14 437.365/2234.400
PHONESAT 2.4 03 Mar 20:15:21 20:18:55 53° 355° (N) 20:22:30 2401.200-2431.200
HO-68 03 Mar 20:18:54 20:25:51 60° 70° (ENE) 20:32:54 435.675
PCSat 03 Mar 20:20:33 20:25:31 39° 111° (ESE) 20:30:33 145.827
GONETS M04 03 Mar 20:29:58 20:32:02 11° 78° (ENE) 20:34:53
AAUSAT CUBESAT 2 03 Mar 20:41:50 20:45:39 38° 73° (ENE) 20:49:31 437.432
DOVE 4 03 Mar 20:41:56 20:46:57 54° 75° (ENE) 20:51:45 437.250
CINEMA 3 03 Mar 20:42:53 20:46:55 28° 72° (ENE) 20:50:54 145.822/145.860
Oscar 11 03 Mar 20:43:10 20:46:12 20° 69° (ENE) 20:49:22 145.826/435.025
COMPASS 1 03 Mar 20:45:06 20:49:06 49° 75° (ENE) 20:53:08 437.405
CUBESAT XI-V 03 Mar 20:45:18 20:47:42 14° 294° (WNW) 20:49:53 437.345
CUBEBUG 2 03 Mar 20:56:51 21:00:11 21° 70° (ENE) 21:03:34 437.445
O/OREOS (USA 219) 03 Mar 21:04:48 21:07:13 14° 260° (W) 21:09:23 437.305
DX 1 03 Mar 21:09:19 21:12:24 20° 68° (ENE) 21:15:37 434.975-435.025
SEEDS 03 Mar 21:14:03 21:18:10 58° 260° (W) 21:22:19 437.485
STRAND 1 03 Mar 21:17:19 21:20:01 14° 296° (WNW) 21:22:28 437.568
CANX-2 03 Mar 21:19:22 21:23:17 37° 262° (W) 21:27:13 2200.000
AISAT 03 Mar 21:20:33 21:21:02 10° 64° (ENE) 21:21:49 437.250
HUMSAT D 03 Mar 21:26:57 21:29:15 15° 68° (ENE) 21:31:42 437.325/437.525
VELOX 1 03 Mar 21:28:11 21:29:57 12° 65° (ENE) 21:31:56 145.980
FUNcube-1 03 Mar 21:29:23 21:33:13 31° 72° (ENE) 21:37:02 145.935
ZACube-1 03 Mar 21:30:58 21:34:53 33° 73° (ENE) 21:38:46 437.345
UKube-1 03 Mar 21:36:26 21:40:24 36° 72° (ENE) 21:44:25 .
CUTE 1.7 + AOD 2 03 Mar 21:38:17 21:41:50 25° 265° (W) 21:45:19 437.475
VERMONT LUNAR 03 Mar 21:42:14 21:45:44 87° 13° (NNE) 21:49:13 437.305
DELFI C3 03 Mar 21:42:36 21:46:36 75° 77° (ENE) 21:50:39 145.870
GOMX 1 03 Mar 21:51:11 21:55:30 23° 267° (W) 21:59:32 467.674
UWE-3 03 Mar 21:52:11 21:56:37 74° 77° (ENE) 22:00:58 435.000/436.395/437.385
BRITE-PL 03 Mar 21:53:03 21:56:44 17° 270° (W) 22:00:06 437.365/2234.400
PHONESAT 2.4 03 Mar 21:54:00 21:57:38 66° 12° (NNE) 22:01:14 2401.200-2431.200
PCSat 03 Mar 22:04:23 22:09:04 28° 308° (NW) 22:13:39 145.827
HO-68 03 Mar 22:08:29 22:14:05 23° 268° (W) 22:19:27 435.675
Oscar 11 03 Mar 22:18:20 22:22:13 32° 264° (W) 22:26:04 145.826/435.025
GONETS M04 03 Mar 22:18:58 22:27:36 74° 94° (E) 22:36:16
AAUSAT CUBESAT 2 03 Mar 22:19:05 22:21:31 15° 269° (W) 22:23:47 437.432
CINEMA 3 03 Mar 22:20:03 22:24:06 26° 265° (W) 22:27:57 145.822/145.860
DOVE 4 03 Mar 22:21:50 22:25:01 16° 269° (W) 22:27:53 437.250
TIGRISAT 03 Mar 22:23:26 22:25:52 15° 92° (E) 22:28:30 435.000
COMPASS 1 03 Mar 22:23:38 22:25:11 11° 271° (W) 22:26:29 437.405
CUBEBUG 2 03 Mar 22:32:42 22:36:46 32° 264° (W) 22:40:41 437.445
ANTELSAT 03 Mar 22:36:56 22:40:19 23° 95° (E) 22:43:48 437.575/2403.000
DX 1 03 Mar 22:44:25 22:48:28 34° 263° (W) 22:52:28 434.975-435.025
POPSAT HIP 1 03 Mar 22:44:46 22:46:55 14° 91° (E) 22:49:16 437.405
POLYITAN 1 03 Mar 22:44:48 22:47:01 14° 91° (E) 22:49:27 437.675
50 SAT 03 Mar 22:45:04 22:49:03 87° 81° (E) 22:53:03 437.505
CUBEBUG 1 03 Mar 22:52:16 22:56:27 43° 73° (ENE) 23:00:42 437.445
AISAT 03 Mar 22:52:38 22:57:07 74° 258° (WSW) 23:01:38 437.250
HUMSAT D 03 Mar 23:00:46 23:04:45 41° 262° (W) 23:08:42 437.325/437.525
VELOX 1 03 Mar 23:01:39 23:06:05 60° 259° (W) 23:10:31 145.980
FUNcube-1 03 Mar 23:06:21 23:09:38 20° 267° (W) 23:12:46 145.935
NANOSAT C BR1 03 Mar 23:06:24 23:09:53 25° 95° (E) 23:13:26 145.865
ZACube-1 03 Mar 23:08:11 23:11:22 19° 267° (W) 23:14:22 437.345
UKube-1 03 Mar 23:13:42 23:16:43 18° 267° (W) 23:19:36 .
RS-15 03 Mar 23:15:37 23:26:12 61° 114° (ESE) 23:36:57 29.354- 29.394
TISAT 1 03 Mar 23:20:31 23:23:30 19° 69° (ENE) 23:26:37 437.305
VERMONT LUNAR 03 Mar 23:20:38 23:23:24 22° 212° (SSW) 23:26:07 437.305
SPROUT 03 Mar 23:20:42 23:23:56 21° 69° (ENE) 23:27:17 437.525
ESTCUBE 1 03 Mar 23:21:40 23:26:11 79° 258° (WSW) 23:30:45 437.505/2401.250
PHONESAT 2.4 03 Mar 23:32:37 23:36:00 37° 208° (SSW) 23:39:21 2401.200-2431.200
UNISAT 6 03 Mar 23:34:06 23:38:25 77° 282° (WNW) 23:42:46 437.425
QB50P1 03 Mar 23:39:02 23:43:14 64° 100° (E) 23:47:25 145.935-145.965
BUGSAT 1 03 Mar 23:43:07 23:47:10 50° 99° (E) 23:51:09 437.445
QB50P2 03 Mar 23:43:18 23:47:32 74° 102° (ESE) 23:51:44 145.880/145.840
DANDE 03 Mar 23:54:45 00:01:03 38° 96° (E) 00:06:01 436.750
DUCHIFAT 1 03 Mar 23:57:19 00:01:32 78° 284° (WNW) 00:05:43 145.980
TIGRISAT 03 Mar 23:58:50 00:02:52 40° 287° (WNW) 00:06:54 435.000
ITUPSAT 1 04 Mar 00:10:24 00:11:41 11° 64° (ENE) 00:13:16 437.325
ANTELSAT 04 Mar 00:13:26 00:17:08 27° 289° (WNW) 00:20:47 437.575/2403.000
CUSAT 1 04 Mar 00:17:09 00:23:37 74° 97° (E) 00:28:26 437.405
GONETS M04 04 Mar 00:18:59 00:25:28 22° 295° (WNW) 00:31:35
POPSAT HIP 1 04 Mar 00:19:05 00:23:05 41° 287° (WNW) 00:27:02 437.405
POLYITAN 1 04 Mar 00:19:14 00:23:13 40° 287° (WNW) 00:27:09 437.675
CUBEBUG 1 04 Mar 00:30:22 00:33:05 15° 269° (W) 00:35:38 437.445
NANOSAT C BR1 04 Mar 00:42:17 00:45:41 23° 290° (WNW) 00:49:00 145.865
TISAT 1 04 Mar 00:55:14 00:59:07 33° 263° (W) 01:02:59 437.305
SPROUT 04 Mar 00:56:02 00:59:54 30° 264° (W) 01:03:42 437.525
SWISSCUBE 04 Mar 01:07:51 01:12:26 50° 73° (ENE) 01:17:05 437.505
BEESAT 04 Mar 01:16:09 01:20:48 56° 74° (ENE) 01:25:31 436.000
QB50P1 04 Mar 01:18:00 01:18:39 10° 295° (WNW) 01:19:03 145.935-145.965
Oscar 19 04 Mar 01:19:05 01:22:50 21° 93° (E) 01:26:45 437.125/150
BUGSAT 1 04 Mar 01:20:29 01:22:15 12° 294° (WNW) 01:23:48 437.445
SO-50 04 Mar 01:20:59 01:25:14 41° 115° (ESE) 01:29:41 436.795
RS-15 04 Mar 01:29:07 01:39:11 39° 317° (NW) 01:49:17 29.354- 29.394
DANDE 04 Mar 01:38:41 01:44:22 28° 283° (WNW) 01:48:49 436.750
ITUPSAT 1 04 Mar 01:44:15 01:49:02 75° 258° (WSW) 01:53:51 437.325
BEESAT 3 04 Mar 01:56:21 02:00:02 31° 52° (NE) 02:03:42 437.485
CUSAT 1 04 Mar 02:04:10 02:06:33 12° 288° (WNW) 02:08:24 437.405
JUGNU 04 Mar 02:22:31 02:24:29 12° 172° (S) 02:26:29 437.505
BEESAT 2 04 Mar 02:23:11 02:27:14 50° 56° (NE) 02:31:14 435.950
YUBILEINY 04 Mar 02:23:46 02:30:09 23° 65° (ENE) 02:36:54 435.215
AIST 2 04 Mar 02:28:34 02:31:59 23° 49° (NE) 02:35:25 435.215
Gurwin Techsat 1B 04 Mar 02:39:15 02:43:57 31° 96° (E) 02:48:40 435.225
KKS-1 04 Mar 02:42:43 02:47:13 89° 77° (ENE) 02:51:42 437.445
STARS 04 Mar 02:46:01 02:50:22 61° 75° (ENE) 02:54:45 437.465
SWISSCUBE 04 Mar 02:47:46 02:50:39 15° 269° (W) 02:53:20 437.505
BEESAT 04 Mar 02:56:38 02:59:06 13° 270° (W) 03:01:18 436.000
Oscar 19 04 Mar 02:57:36 03:02:23 41° 289° (WNW) 03:07:10 437.125/150
ITAMSAT 1 04 Mar 02:58:40 03:03:52 66° 101° (E) 03:09:02 435.822/435.867
SO-50 04 Mar 03:02:16 03:05:59 23° 313° (NW) 03:09:43 436.795
HORYU 2 04 Mar 03:05:28 03:07:03 12° 90° (E) 03:08:54 437.375
BEESAT 3 04 Mar 03:34:47 03:37:58 21° 248° (WSW) 03:41:02 437.485
RS-15 04 Mar 03:49:41 03:56:04 16° 349° (N) 04:02:21 29.354- 29.394
BEESAT 2 04 Mar 04:03:05 04:05:02 13° 250° (WSW) 04:06:45 435.950
MOZHAYETS 4 04 Mar 04:04:51 04:08:47 30° 71° (ENE) 04:12:47
AIST 2 04 Mar 04:06:51 04:10:39 32° 246° (WSW) 04:14:21 435.215
JAS-2 04 Mar 04:09:40 04:16:00 29° 93° (E) 04:22:43 435.910
JUGNU 04 Mar 04:09:53 04:12:40 13° 182° (S) 04:15:27 437.505
SRMSAT 04 Mar 04:14:43 04:17:09 13° 174° (S) 04:19:37 437.500
YUBILEINY 04 Mar 04:19:10 04:28:00 73° 266° (W) 04:36:44 435.215
Gurwin Techsat 1B 04 Mar 04:19:16 04:23:53 30° 291° (WNW) 04:28:23 435.225
AO-7 04 Mar 04:21:26 04:29:13 44° 99° (E) 04:37:03 29.400- 29.500
STARS 04 Mar 04:26:11 04:27:20 11° 271° (W) 04:28:09 437.465
M-CUBED/EXP-1 PRIME 04 Mar 04:38:33 04:41:41 41° 256° (WSW) 04:44:56 437.505
AUBIESAT-1 04 Mar 04:39:10 04:42:21 47° 256° (WSW) 04:45:40 437.475
HORYU 2 04 Mar 04:39:46 04:44:07 55° 286° (WNW) 04:48:29 437.375
ITAMSAT 1 04 Mar 04:39:55 04:42:53 15° 296° (WNW) 04:45:36 435.822/435.867
PCSat 04 Mar 05:10:37 05:14:49 23° 49° (NE) 05:19:07 145.827
MOZHAYETS 4 04 Mar 05:42:21 05:46:02 23° 266° (W) 05:49:39
JAS-2 04 Mar 05:53:57 06:01:18 56° 288° (WNW) 06:08:54 435.910
SRMSAT 04 Mar 06:02:44 06:05:31 13° 184° (S) 06:08:16 437.500
RS-15 04 Mar 06:06:36 06:14:30 21° 25° (NNE) 06:22:58 29.354- 29.394
CUBESAT XI-V 04 Mar 06:07:28 06:11:56 46° 73° (ENE) 06:16:27 437.345
PRISM 04 Mar 06:13:09 06:17:11 55° 74° (ENE) 06:21:18 437.425
AO-7 04 Mar 06:14:24 06:21:57 40° 297° (WNW) 06:29:22 29.400- 29.500
YUBILEINY 04 Mar 06:20:35 06:23:29 11° 282° (WNW) 06:25:36 435.215
Cubesat XI-IV 04 Mar 06:37:17 06:42:21 43° 98° (E) 06:47:26 437.490
CUTE-I 04 Mar 06:45:42 06:50:55 51° 99° (E) 06:56:06 437.470
STRAND 1 04 Mar 06:50:01 06:55:10 80° 76° (ENE) 07:00:21 437.568
PCSat 04 Mar 06:53:18 06:58:33 50° 248° (WSW) 07:03:45 145.827
JAS-2 04 Mar 07:44:11 07:45:08 10° 304° (WNW) 07:45:29 435.910
AIST 1 04 Mar 07:46:10 07:50:31 71° 278° (W) 07:54:54
CUBESAT XI-V 04 Mar 07:46:41 07:49:40 16° 269° (W) 07:52:28 437.345
PRISM 04 Mar 07:52:22 07:53:08 10° 271° (W) 07:53:37 437.425
HO-68 04 Mar 07:53:45 07:54:09 10° 85° (E) 07:55:16 435.675
ISS 04 Mar 08:14:39 08:17:38 36° 135° (SE) 08:20:39 145.825
Cubesat XI-IV 04 Mar 08:18:02 08:22:13 23° 293° (WNW) 08:26:15 437.490
RS-15 04 Mar 08:18:41 08:30:00 62° 53° (NE) 08:41:51 29.354- 29.394
BRITE-PL 04 Mar 08:21:11 08:24:09 18° 91° (E) 08:27:09 437.365/2234.400
CUTE-I 04 Mar 08:26:50 08:30:39 20° 295° (WNW) 08:34:17 437.470
GONETS M04 04 Mar 08:32:03 08:39:40 33° 71° (ENE) 08:47:28
STRAND 1 04 Mar 08:34:20 08:35:06 10° 273° (W) 08:35:27 437.568
DOVE 4 04 Mar 08:45:13 08:47:15 14° 90° (E) 08:49:29 437.250
SEEDS 04 Mar 09:00:54 09:04:25 26° 95° (E) 09:08:00 437.485
CANX-2 04 Mar 09:06:29 09:10:29 40° 98° (E) 09:14:31 2200.000
TIGRISAT 04 Mar 09:22:02 09:23:27 12° 66° (ENE) 09:25:06 435.000
DELFI C3 04 Mar 09:26:33 09:28:03 12° 90° (E) 09:29:47 145.870
